Location: Unspecified
(22.6800°N, 112.2000°E)
Time: 12:23:32
(UTC+08:00)

Transit 2A - Pass Details

Date: 06 August 2021
Orbit: 595 x 963 km, 66.7° (Epoch: 16 September)

Event Time Altitude Azimuth Distance (km) Brightness Sun altitude
Rises 15:54:38 0° 324° (NW) 3,441 9.8 43.3°
Reaches altitude 10° 15:57:13 10° 316° (NW) 2,552 9.4 42.7°
Maximum altitude 16:02:37 36° 251° (WSW) 1,430 9.3 41.5°
Drops below altitude 10° 16:08:18 10° 187° (S) 2,677 9.0 40.2°
Sets 16:11:05 0° 179° (S) 3,631 9.5 39.5°
